Location: Linton
(52.1000°N, 0.2667°E)
Time: 06:18:57
(UTC+00:00)

Daily predictions for brighter satellites

Satellite Brightness Start Highest point End
(mag) Time Altitude Azimuth Time Altitude Azimuth Time Altitude Azimuth
Terra 1.9 21:03:51 10° SSE 21:08:33 84° WSW 21:13:19 10° NNW
Cosmos 2360 Rocket 2.3 21:04:00 10° NNW 21:09:44 84° WSW 21:15:24 10° SSE
Cosmos 1315 Rocket 4.4 21:06:57 10° SE 21:09:52 20° E 21:12:49 10° NE
ARIANE 5 R/B 4.4 21:09:13 10° ESE 21:12:18 19° ENE 21:15:25 10° NNE
In-Cosmos 22 4.4 21:07:41 10° SSW 21:13:18 79° WNW 21:18:48 10° N
ERS-1 Rocket 3.4 21:10:37 10° S 21:15:36 65° WSW 21:20:38 10° NNW
Cosmos 841 Rocket 4.4 21:11:28 10° NW 21:16:31 47° WSW 21:21:32 10° S
Cosmos 1455 3.5 21:14:39 10° NNE 21:17:37 25° ENE 21:20:34 10° SE
S3M 4.5 21:12:35 10° NNW 21:18:55 66° W 21:25:08 10° S
SL-27 R/B 2.1 21:17:38 10° S 21:20:19 46° ESE 21:23:01 10° NE
SL-16 R/B 3.4 21:17:38 10° NW 21:22:50 38° WSW 21:28:00 10° S
OPS 8737 4.0 21:20:55 10° NW 21:23:52 84° SW 21:26:55 10° SE
BREEZE-M DEB (TANK) 3.9 21:21:44 10° SW 21:25:48 58° SSE 21:40:50 10° ENE
USA 245 4.4 21:25:13 10° S 21:28:51 46° W 21:33:26 10° NNW
Cosmos 2333 Rocket 2.5 21:23:32 10° NW 21:29:16 68° WSW 21:34:58 10° SSE
Cosmos 2082 Rocket 4.2 21:24:25 10° WSW 21:29:33 33° NW 21:34:42 10° NNE
Cosmos 807 4.2 21:26:48 10° S 21:29:54 57° E 21:32:47 10° NNE
Aureole 3 4.0 21:26:17 10° S 21:30:19 53° E 21:35:22 10° NNE
Cosmos 2266 Rocket 4.4 21:24:10 10° SSW 21:30:30 72° WNW 21:36:57 10° N
Meteor 1-23 Rocket 4.4 21:25:58 10° SSW 21:31:39 83° WNW 21:37:27 10° NNE
Cosmos 1346 Rocket 3.0 21:27:52 10° NNW 21:31:44 67° W 21:35:32 10° S
Spot 2 Rocket 3.9 21:26:47 10° S 21:31:48 62° WSW 21:36:52 10° NNW
SL-14 R/B 3.2 21:28:27 10° S 21:32:14 87° W 21:36:04 10° N
Cosmos 2228 Rocket 3.2 21:32:42 10° S 21:37:16 86° W 21:41:53 10° N
Cosmos 1655 Rocket 4.2 21:34:53 10° SSW 21:41:18 83° WNW 21:47:45 10° N
ATLAS 2AS CENTAUR R/B 3.1 21:35:01 10° NW 21:41:41 55° SW 21:47:58 11° SSE
COSMOS 2455 4.4 21:38:30 10° SE 21:42:09 17° ESE 21:45:53 10° ENE
Landsat 5 3.6 21:38:48 10° NNE 21:42:45 54° ESE 21:46:50 10° S
Cosmos 1833 4.2 21:39:07 10° SSW 21:44:39 64° ESE 21:50:14 10° NE
Cosmos 2237 Rocket 3.6 21:40:38 10° NNW 21:45:39 31° NE 21:50:38 10° ESE
Orbus 7S? 4.4 21:42:51 10° W 21:46:47 41° NNW 21:49:26 10° ENE
Meteor 1-4 Rocket 2.2 21:44:36 10° S 21:47:29 56° E 21:50:27 10° NNE
Cosmos 1242 Rocket 3.5 21:47:48 14° SE 21:49:19 21° E 21:51:27 10° NE
USA 281 3.6 21:43:53 10° SE 21:50:18 59° NE 21:56:45 10° NNW
Cosmos 2322 3.9 21:45:23 10° NNW 21:51:06 71° ENE 21:56:21 12° SE
Meteor 1-16 Rocket 4.4 21:45:27 10° NNW 21:51:25 84° W 21:57:16 10° S
RESURS DK-1 4.5 21:49:26 10° WNW 21:52:19 19° WSW 21:55:11 10° SSW
Okean 3 3.4 21:48:58 10° S 21:53:06 85° E 21:57:19 10° NNE
Kosmos-1783 4.3 21:50:08 10° NW 21:53:32 76° SW 22:00:03 11° SE
Cosmos 839 Rocket 4.3 21:48:01 10° NW 21:55:00 65° WSW 22:00:35 13° SSE
Spot 1 4.2 21:50:55 10° NNE 21:55:28 76° ESE 22:00:16 10° S
Ariane Rocket 4.0 21:51:59 10° SSW 21:56:48 42° W 22:01:38 10° NNW
Cosmos 1300 4.2 21:54:14 10° NNW 21:57:21 29° W 22:00:27 10° SSW
ALOS 2 4.5 21:58:37 10° ESE 22:01:55 21° ENE 22:05:13 10° N
H-2A R/B 3.8 21:58:24 10° SE 22:02:04 30° ENE 22:05:46 10° N
MetOp-A 4.2 21:58:04 11° S 22:03:07 72° WSW 22:08:22 10° NNW
Cosmos 1703 Rocket 4.0 21:59:28 13° SSE 22:03:13 47° E 22:07:30 10° NNE
Cosmos 1862 Rocket 4.0 21:59:39 10° SSW 22:04:02 64° WNW 22:08:28 10° N
Cosmos 2322 Rocket 3.6 21:59:29 10° NW 22:04:19 29° WSW 22:09:09 10° SSW
SL-4 R/B 1.9 22:03:46 10° W 22:07:39 70° SSW 22:11:48 10° ESE
Cosmos 2297 Rocket 3.8 22:11:53 12° SE 22:14:53 18° E 22:18:38 10° ENE
SJ 16-02 1.5 22:12:25 10° SSW 22:16:44 74° WNW 22:21:05 10° NNE
SeaSat 1 4.3 22:15:41 10° SSW 22:19:19 21° WSW 22:22:59 10° WNW
SL-08 R/B 4.4 22:13:35 11° S 22:19:33 78° E 22:25:41 10° NNE
Cosmos 158 Rocket 4.1 22:16:51 10° NNW 22:22:13 78° ENE 22:26:23 16° SSE
Cosmos 968 Rocket 4.1 22:17:54 10° SW 22:23:00 59° WNW 22:28:10 10° NNE
BREEZE-M DEB (TANK) 3.2 22:20:57 10° WSW 22:23:43 62° S 22:30:55 10° E
Cosmos 1570 Rocket 4.1 22:20:44 10° NNW 22:26:05 75° WSW 22:30:19 17° SSE
Cosmos 1932 4.4 22:19:47 10° SW 22:26:07 82° SE 22:32:25 10° NE
BREEZE-M DEB (TANK) 4.1 22:25:21 10° WSW 22:27:03 16° SSW 22:27:27 16° S
MINOTAUR 4 R/B 4.5 22:25:01 10° NNE 22:27:41 32° E 22:28:58 22° SE
Cosmos 2219 Rocket 2.9 22:22:25 10° NW 22:27:46 44° WSW 22:32:21 14° S
Cosmos 1408 3.2 22:27:18 20° SE 22:28:38 28° E 22:31:16 10° NNE
ATLAS CENTAUR R/B 2.4 22:25:20 10° WSW 22:28:42 41° NW 22:32:13 10° NE
EXPRESS MD2 2.0 22:27:45 10° W 22:29:58 46° S 22:30:57 25° ESE
CZ-4C R/B 3.0 22:28:53 17° SSE 22:31:15 25° ESE 22:35:41 10° ENE
COSMOS 2428 2.8 22:28:24 10° NNW 22:34:06 75° WSW 22:38:32 17° SSE
CZ-2C R/B 3.6 22:33:33 10° NNE 22:37:59 72° ESE 22:41:28 16° S
BREEZE-M DEB (TANK) 3.8 22:22:32 10° W 22:38:20 74° S 22:42:25 10° E
CENTAUR R/B 4.2 22:37:02 10° SE 22:39:24 13° E 22:42:01 10° ENE
Cosmos 1953 3.3 22:36:04 10° NNW 22:39:37 37° W 22:42:38 13° SSW
USA 234 3.3 22:34:38 10° ENE 22:41:13 89° NNW 22:47:47 10° WSW
Okean 2 4.1 22:38:24 10° SSW 22:42:17 49° WNW 22:46:14 10° N
Okean 1-7 3.8 22:38:43 10° SSW 22:42:56 50° WNW 22:47:10 10° N
Cosmos 405 Rocket 4.0 22:40:08 10° N 22:43:31 30° ENE 22:46:03 15° SE
BlueWalker 3 2.2 22:40:14 10° SW 22:43:45 40° SSE 22:47:17 10° E
Cosmos 1315 Rocket 3.8 22:41:53 10° SW 22:45:43 45° WNW 22:49:36 10° N
Terra 4.3 22:44:47 10° WSW 22:46:55 13° W 22:49:02 10° WNW
ARIANE 5 R/B 2.8 22:45:12 18° S 22:48:16 65° WSW 22:52:37 10° NNW
Cosmos 773 Rocket 4.1 22:43:42 10° NNW 22:48:52 73° ENE 22:52:47 18° SE
Cosmos 1455 3.6 22:48:59 10° NNW 22:52:01 28° W 22:54:36 13° SSW
Cosmos 2360 Rocket 4.3 22:49:25 10° WNW 22:52:52 17° W 22:56:17 10° SW
Cosmos 371 Rocket 3.7 22:53:41 20° S 22:56:45 46° ESE 23:01:22 10° NE
PSLV R/B 3.8 22:54:31 10° NNE 22:58:32 85° E 23:01:18 19° SSW
Cosmos 1782 Rocket 3.9 22:55:18 10° NNW 22:59:32 56° W 23:02:30 19° SSW
GP-B 3.6 22:55:43 10° N 23:00:02 54° W 23:03:32 15° SSW
Cosmos 2208 Rocket 4.4 22:57:00 10° NNW 23:02:02 51° WSW 23:05:33 19° S
Cosmos 1745 Rocket 4.1 22:59:46 14° SSW 23:05:17 82° W 23:11:43 10° N
Cosmos 1892 4.3 23:05:53 15° ESE 23:07:23 20° E 23:10:00 10° NE
GENESIS II 4.2 23:03:52 10° SW 23:07:30 73° NW 23:11:10 10° NE
H-2A R/B 3.8 23:05:50 10° NE 23:08:55 19° E 23:10:59 14° SE
Nadezhda 1 Rocket 4.5 23:03:58 10° NNW 23:10:06 55° W 23:15:01 16° SSW
Cosmos 1503 Rocket 4.4 23:07:09 20° S 23:10:33 48° ESE 23:15:38 10° NE
Cosmos 2333 Rocket 4.4 23:09:58 10° WNW 23:12:29 13° W 23:14:59 10° WSW
NOSS 8 (H) 4.4 23:11:36 20° SSW 23:13:50 54° SE 23:16:48 10° NE
Cosmos 1703 3.1 23:12:38 25° S 23:14:37 68° E 23:18:17 10° NNE
Cosmos 1300 Rocket 4.2 23:10:50 10° NNW 23:14:58 47° W 23:17:47 19° SSW
Cosmos 1242 Rocket 4.2 23:19:09 10° WSW 23:21:15 19° WNW 23:23:22 10° NNW
Cosmos 2181 Rocket 4.1 23:16:10 10° N 23:22:23 72° ENE 23:26:52 19° SSE
SL-16 R/B 3.1 23:18:39 10° NNW 23:24:08 46° NE 23:29:37 10° ESE
NOSS 8 (A) 4.3 23:21:21 10° NW 23:24:16 69° NE 23:26:36 18° SE
NOSS 8 (F) 4.3 23:22:51 10° SW 23:26:35 84° NW 23:29:37 10° NE
COSMOS 2455 2.8 23:21:34 12° SSW 23:27:09 77° ESE 23:33:12 10° NE
Cosmos 1825 3.2 23:26:52 21° SE 23:28:18 28° E 23:31:17 10° NNE
Cosmos 2151 Rocket 3.7 23:23:54 10° N 23:28:18 68° ENE 23:31:01 22° SSE
Spot 4 4.2 23:26:57 21° S 23:30:01 54° W 23:34:46 10° NNW
Cosmos 2237 Rocket 2.3 23:24:32 10° NW 23:30:11 69° WSW 23:34:01 21° SSE
BREEZE-M DEB (TANK) 3.7 23:29:09 26° SSW 23:30:14 36° SSE 23:35:03 10° E
Cosmos 2098 Rocket 4.1 23:27:04 10° NNW 23:33:43 81° W 23:38:17 20° S
Okean 2 Rocket 3.2 23:30:07 10° N 23:34:36 71° ENE 23:37:23 23° SSE
USA 281 4.0 23:30:32 17° SSW 23:35:04 38° WSW 23:41:09 10° NW
H-2A R/B 3.5 23:34:22 19° SSW 23:36:54 37° W 23:40:53 10° NNW
Cosmos 1486 Rocket 4.1 23:32:33 15° SSW 23:36:57 76° WNW 23:42:12 10° NNE
Cosmos 1674 Rocket 4.0 23:35:17 23° SSE 23:37:43 50° E 23:41:56 10° NNE
Cosmos 1378 Rocket 3.8 23:35:17 24° SSE 23:37:46 59° E 23:42:07 10° NNE
ALOS 2 2.9 23:35:18 23° S 23:37:53 59° W 23:42:15 10° NNW
Cosmos 2227 Rocket 2.9 23:35:09 21° SSE 23:38:26 40° ESE 23:43:42 10° NE
Cosmos 304 Rocket 3.7 23:38:29 19° SSW 23:41:54 89° WNW 23:46:42 10° NNE
Cosmos 1980 4.0 23:38:02 10° NW 23:43:33 53° WSW 23:47:07 21° S
SL-4 R/B 3.0 23:42:36 10° W 23:46:05 28° SSW 23:47:04 25° S
Meteor 1-24 Rocket 3.8 23:42:33 19° SSW 23:46:48 81° WNW 23:52:25 10° NNE
SOZ 4.3 23:44:51 10° W 23:47:23 78° SSW 23:50:23 10° ESE
Cosmos 332 Rocket 4.1 23:48:04 23° S 23:50:55 54° ESE 23:55:42 10° NNE
Cosmos 1354 Rocket 4.0 23:49:34 21° SSW 23:53:13 77° ESE 23:58:32 10° NNE
SJ 16-02 4.1 23:53:35 10° WNW 23:55:53 14° NW 23:58:13 10° N
